sat.trackr.live / text

‹ back to catalog

STARLINK-34134

NORAD 63899 · 2025-095K

PAYLOAD ACTIVE UNKNOWN

§ Identity

Operator
Country
US
Launch date
2025-05-10
Launch site
AFETR
Launch vehicle
Mass (kg)
RCS (m²)

Purposes: comms

External: N2YO · Heavens-Above · Gunter

§ Orbital elements

Epoch: 2026-05-25T04:09:18.569376Z

Period
94.27 min
Inclination
43.0007°
Eccentricity
0.0000767
Mean motion
15.27593857 rev/d
Perigee alt
482.5 km
Apogee alt
483.5 km
Semi-major
6,861.1 km
B*
4.8618e-4
RAAN
104.3954°
Arg perigee
258.3706°
Mean anomaly
101.7060°
Rev number
5,948

§ Raw data

STARLINK-341341 63899U 25095K   26145.17313159  .00013146  00000+0  48618-3 0  99982 63899  43.0007 104.3954 0000767 258.3706 101.7060 15.27593857 59481

JSON: /api/v1/satellites/63899 · /tle

For live sub-satellite position, see the globe view (requires WebGL).

§ Visibility from observer

Set your observer location to see the next 7 days of passes ≥ 10°. The values pass through the URL so the page stays shareable.

No JS? Fill the form by hand. The geolocation button needs JavaScript.